Weather History for EICK - January, 2013

Change the Weather History Date:

Monday, January 21, 2013

  Actual Average Record
Temperature  
Mean Temperature 36 °F -  
Max Temperature 39 °F 46 °F 53 °F (2005)
Min Temperature 32 °F 37 °F 28 °F (2009)
Degree Days  
Heating Degree Days 30    
Moisture  
Dew Point 33 °F    
Average Humidity 95    
Maximum Humidity 100    
Minimum Humidity 77    
Precipitation  
Precipitation 0.16 in 0.16 in - ()
Sea Level Pressure  
Sea Level Pressure 29.34 in    
Wind  
Wind Speed 6 mph ()    
Max Wind Speed 13 mph    
Max Gust Speed -    
Visibility 5.3 miles    
Events Fog , Rain , Snow    
Averages and records for this station are not official NWS values.
T = Trace of Precipitation, MM = Missing Value Source: Averaged Metar Reports

Daily Weather History Graph

Daily Weather History Graph

Search for Another Location

Airport or City:

Trip Planner

Search our weather history database for the weather conditions in past years. The results will help you decide how hot, cold, wet, or windy it might be!

Date:

Astronomy

Jan. 21, 2013 Rise Set
Actual Time 8:28 AM GMT 5:02 PM GMT
Civil Twilight 7:50 AM GMT 5:41 PM GMT
Nautical Twilight 7:08 AM GMT 6:22 PM GMT
Astronomical Twilight 6:28 AM GMT 7:02 PM GMT
Moon 12:31 PM GMT (1/21) 3:44 AM GMT (1/21)
Length of Visible Light 9h 50m
Length of Day
8h 34m
Waxing Gibbous, 73% of the Moon is Illuminated
Jan 21
Waxing Gibbous
Jan 27
Full
Feb 3
Last Quarter
Feb 10
New
Feb 17
First Quarter

Hourly Weather History & Observations

Time (GMT) Temp. Windchill Dew Point Humidity Pressure Visibility Wind Dir Wind Speed Gust Speed Precip Events Conditions
12:00 AM 36 °F - 31 °F 77% 29.34 in 16 mi East 13.4 mph - - Rain Light Rain
12:00 AM 35.6 °F 27.1 °F 32.0 °F 87% 29.30 in 6.2 mi East 12.7 mph - N/A Rain Light Rain
12:30 AM 35.6 °F 28.6 °F 32.0 °F 87% 29.30 in 6.2 mi ESE 9.2 mph - N/A   Mostly Cloudy
1:00 AM 35.6 °F 29.9 °F 32.0 °F 87% 29.44 in 6.2 mi East 6.9 mph - N/A   Mostly Cloudy
1:30 AM 35.6 °F 28.6 °F 32.0 °F 87% 29.30 in 6.2 mi East 9.2 mph - N/A Rain Light Rain
2:00 AM 35.6 °F 29.2 °F 32.0 °F 87% 29.30 in 6.2 mi ESE 8.1 mph - N/A   Mostly Cloudy
2:30 AM 35.6 °F 28.6 °F 32.0 °F 87% 29.30 in 6.2 mi East 9.2 mph - N/A   Mostly Cloudy
3:00 AM 33.8 °F 28.6 °F 32.0 °F 93% 29.30 in 6.2 mi NE 5.8 mph - N/A   Mostly Cloudy
3:30 AM 33.8 °F 28.6 °F 32.0 °F 93% 29.30 in 6.2 mi NNE 5.8 mph - N/A   Mostly Cloudy
4:00 AM 33.8 °F 28.6 °F 33.8 °F 100% 29.33 in 6.2 mi NNW 5.8 mph - N/A Rain , Snow Light Rain
4:30 AM 33.8 °F 30.8 °F 33.8 °F 100% 29.33 in 6.2 mi North 3.5 mph - N/A Rain , Snow Light Rain
5:00 AM 33.8 °F 29.6 °F 33.8 °F 100% 29.33 in 6.2 mi NNW 4.6 mph - N/A Rain , Snow Light Rain
5:30 AM 33.8 °F - 33.8 °F 100% 29.33 in 6.2 mi NNW 2.3 mph - N/A Rain , Snow Light Rain
6:00 AM 33 °F - 33 °F 100% 29.37 in 4 mi NNW 2.2 mph - - Snow Light Snow
6:00 AM 33.8 °F - 33.8 °F 100% 29.33 in 4.3 mi NNW 2.3 mph - N/A Rain , Snow Light Rain
6:30 AM 33.8 °F 29.6 °F 32.0 °F 93% 29.33 in 3.7 mi WNW 4.6 mph - N/A Snow Light Snow
7:00 AM 32.0 °F 27.5 °F 32.0 °F 100% 29.36 in 1.9 mi WNW 4.6 mph - N/A Rain , Snow Light Rain
7:30 AM 32.0 °F 28.7 °F 32.0 °F 100% 29.36 in 0.9 mi WNW 3.5 mph - N/A Snow Light Snow
8:00 AM 32.0 °F 28.7 °F 32.0 °F 100% 29.36 in 1.1 mi WNW 3.5 mph - N/A Snow Light Snow
8:30 AM 32.0 °F 25.6 °F 32.0 °F 100% 29.39 in 1.0 mi WNW 6.9 mph - N/A Snow Light Snow
9:00 AM 32.0 °F - 32.0 °F 100% 29.36 in 1.9 mi West 2.3 mph - N/A Snow Light Snow
9:30 AM 32.0 °F - 32.0 °F 100% 29.39 in 1.0 mi North 2.3 mph - N/A Snow Light Snow
10:00 AM 32.0 °F - 32.0 °F 100% 29.39 in 0.7 mi West 1.2 mph - N/A Snow Light Snow
10:30 AM 32.0 °F - 32.0 °F 100% 29.39 in 3.7 mi WNW 1.2 mph - N/A   Mostly Cloudy
11:00 AM 33.8 °F - 33.8 °F 100% 29.36 in 3.7 mi West 1.2 mph - N/A   Scattered Clouds
11:30 AM 33.8 °F 30.8 °F 33.8 °F 100% 29.36 in 0.2 mi SSW 3.5 mph - N/A Fog Fog
12:00 PM 35 °F - 35 °F 97% 29.40 in 5 mi WSW 6.7 mph - - Fog Light Fog
12:00 PM 33.8 °F 28.6 °F 33.8 °F 100% 29.36 in 5.0 mi WSW 5.8 mph - N/A   Mostly Cloudy
12:30 PM 33.8 °F 27.0 °F 33.8 °F 100% 29.36 in 6.2 mi SW 8.1 mph - N/A   Mostly Cloudy
1:00 PM 33.8 °F 28.6 °F 33.8 °F 100% 29.36 in 6.2 mi SW 5.8 mph - N/A   Mostly Cloudy
1:30 PM 35.6 °F 30.7 °F 35.6 °F 100% 29.36 in 6.2 mi SW 5.8 mph - N/A   Mostly Cloudy
2:00 PM 37.4 °F 31.4 °F 35.6 °F 93% 29.33 in 6.2 mi SW 8.1 mph - N/A   Partly Cloudy
2:30 PM 39.2 °F 33.6 °F 35.6 °F 87% 29.33 in 6.2 mi WSW 8.1 mph - N/A   Partly Cloudy
3:00 PM 39.2 °F 34.2 °F 35.6 °F 87% 29.33 in 6.2 mi WSW 6.9 mph - N/A   Partly Cloudy
3:30 PM 39.2 °F 35.9 °F 33.8 °F 81% 29.33 in 6.2 mi SW 4.6 mph - N/A   Partly Cloudy
4:00 PM 39.2 °F 37.0 °F 33.8 °F 81% 29.30 in 6.2 mi West 3.5 mph - N/A   Partly Cloudy
4:30 PM 37.4 °F 34.9 °F 33.8 °F 87% 29.30 in 6.2 mi NW 3.5 mph - N/A   Partly Cloudy
5:00 PM 35.6 °F - 32.0 °F 87% 29.33 in 6.2 mi WSW 2.3 mph - N/A   Partly Cloudy
5:30 PM 35.6 °F - 32.0 °F 87% 29.30 in 6.2 mi West 2.3 mph - N/A   Partly Cloudy
6:00 PM 35 °F - 32 °F 84% 29.34 in 19 mi North 2.2 mph - -   Partly Cloudy
6:00 PM 35.6 °F - 32.0 °F 87% 29.30 in 6.2 mi North 2.3 mph - N/A   Partly Cloudy
6:30 PM 33.8 °F 28.6 °F 32.0 °F 93% 29.30 in 6.2 mi NNE 5.8 mph - N/A   Partly Cloudy
7:00 PM 33.8 °F 28.6 °F 33.8 °F 100% 29.30 in 6.2 mi NE 5.8 mph - N/A   Scattered Clouds
7:30 PM 33.8 °F 30.8 °F 33.8 °F 100% 29.30 in 5.0 mi SE 3.5 mph - N/A   Mostly Cloudy
8:00 PM 33.8 °F - 32.0 °F 93% 29.33 in 6.2 mi Calm Calm - N/A   Mostly Cloudy
8:30 PM 33.8 °F - 32.0 °F 93% 29.33 in 4.3 mi NNE 2.3 mph - N/A   Partly Cloudy
9:00 PM 32.0 °F 26.4 °F 32.0 °F 100% 29.33 in 2.5 mi NW 5.8 mph - N/A   Partly Cloudy
9:30 PM 32.0 °F 24.2 °F 32.0 °F 100% 29.33 in 0.2 mi NNW 9.2 mph - N/A Fog Light Freezing Fog
10:00 PM 32.0 °F 26.4 °F 32.0 °F 100% 29.33 in 6.2 mi NNW 5.8 mph - N/A   Mostly Cloudy
10:30 PM 32.0 °F 26.4 °F 32.0 °F 100% 29.33 in 6.2 mi NW 5.8 mph - N/A   Mostly Cloudy
11:00 PM 32.0 °F 25.6 °F 32.0 °F 100% 29.33 in 3.7 mi NW 6.9 mph - N/A   Scattered Clouds
11:30 PM 32.0 °F 24.8 °F 32.0 °F 100% 29.33 in 6.2 mi NW 8.1 mph - N/A   Mostly Cloudy